Skip Page Navigation
NASA JPL Caltech
NASA Logo - Jet Propulsion Laboratory + View the NASA Portal
+ Near-Earth Object (NEO) Program
Search JPL
JPL Home Earth Solar System Stars & Galaxies Technology
JPL Solar System Dynamics
BODIES ORBITS EPHEMERIDES TOOLS PHYSICAL DATA DISCOVERY FAQ SITE MAP
JPL Small-Body Database Browser
Search: [ help ]  
48420 (1988 RN5)
Classification: Main-belt Asteroid          SPK-ID: 2048420
Ephemeris | Orbit Diagram | Orbital Elements | Physical Parameters | Discovery Circumstances | Close-Approach Data ]

[ show orbit diagram ]
Orbital Elements at Epoch 2457600.5 (2016-Jul-31.0) TDB
Reference: JPL 15 (heliocentric ecliptic J2000)
 Element Value Uncertainty (1-sigma)   Units 
e .1615654927144399 5.9718e-08  
a 2.728657661570708 1.9707e-08 au
q 2.287800742030005 1.6785e-07 au
i 2.323043598460893 4.9466e-06 deg
node 246.9649346354051 0.00015757 deg
peri 109.9963424778923 0.00015841 deg
M 56.81784813708699 1.5535e-05 deg
tp 2457340.661029854825
(2015-Nov-14.16102985)
7.0417e-05 JED
period 1646.349383499527
4.51
1.7835e-05
4.883e-08
d
yr
n .2186656147280074 2.3688e-09 deg/d
Q 3.169514581111411 2.289e-08 au
  Orbit Determination Parameters
   # obs. used (total)      780  
   data-arc span      9994 days (27.36 yr)  
   first obs. used      1988-09-02  
   last obs. used      2016-01-13  
   planetary ephem.      DE431  
   SB-pert. ephem.      SB431-BIG16  
   condition code      0  
   fit RMS      .51436  
   data source      ORB  
   producer      Otto Matic  
   solution date      2016-Feb-25 22:59:48  

Additional Information
 Earth MOID = 1.28392 au 
 Jupiter MOID = 2.27697 au 
 T_jup = 3.335 
[ show covariance matrix ]

Ephemeris | Orbit Diagram | Orbital Elements | Physical Parameters | Discovery Circumstances | Close-Approach Data ]

Physical Parameter Table
Parameter Symbol Value Units Sigma Reference Notes
absolute magnitude H 14.7 mag n/a MPO347857  

48420 (1988 RN5)          Discovered 1988-Sep-02 by Debehogne, H. at La Silla
Reference: 20021120/Numbers.arcLast Updated: 2004-04-19

[ show close-approach data ]
Ephemeris | Orbit Diagram | Orbital Elements | Physical Parameters | Discovery Circumstances | Close-Approach Data ]
ABOUT SSD CREDITS/AWARDS PRIVACY/COPYRIGHT GLOSSARY LINKS
FirstGov 2016-May-04 07:56 UT
(server date/time)  
NASA Home Page
Site Manager:   Ryan S. Park
Webmaster  Alan B. Chamberlin